GW5434 Weather Reports


time (UTC)temp
C
wind
direction
speed
KPH
gust
KPH
rain 1hr
cm
rain 24hr
cm
rain mn
cm
humidity
%
barometer
mb
20260901114505 21 153 0.0 0.0 0.00 0.00 0.00 94 1018.4
20260901113004 21 153 0.0 0.0 0.00 0.00 0.00 94 1018.2
20260901111506 21 153 0.0 0.0 0.00 0.00 0.00 94 1018.1
20260901110007 22 153 0.0 0.0 0.00 0.00 0.00 94 1018.0
20260901104504 21 153 0.0 0.0 0.00 0.00 0.00 94 1017.8
20260901103003 21 153 0.0 0.0 0.00 0.00 0.00 94 1017.8
20260901101504 21 153 0.0 0.0 0.00 0.00 0.00 94 1017.7
20260901100008 21 153 0.0 0.0 0.00 0.00 0.00 94 1017.7
20260901094514 21 153 0.0 0.0 0.00 0.00 0.00 93 1017.7
20260901093009 22 153 0.0 0.0 0.00 0.00 0.00 94 1017.7
20260901091506 22 153 0.0 0.0 0.00 0.00 0.00 93 1017.6
20260901090008 22 153 0.0 0.0 0.00 0.00 0.00 93 1017.4
20260901084509 22 153 0.0 0.0 0.00 0.00 0.00 93 1017.3
20260901083008 22 153 0.0 0.0 0.00 0.00 0.00 93 1017.5
20260901081507 22 153 0.0 0.0 0.00 0.00 0.00 93 1017.5
20260901080016 22 153 0.0 0.0 0.00 0.00 0.00 93 1017.6
20260901074510 22 153 0.0 0.0 0.00 0.00 0.00 92 1017.5
20260901073009 22 153 0.0 0.0 0.00 0.00 0.00 92 1017.3
20260901070012 22 153 0.0 0.0 0.00 0.00 0.00 92 1017.6
20260901064510 22 153 0.0 0.0 0.00 0.00 0.00 92 1017.7
20260901063024 23 153 0.0 0.0 0.00 0.00 0.00 92 1017.9
20260901061513 23 158 0.0 0.0 0.00 0.00 0.00 92 1017.8
20260901060013 23 158 0.0 0.0 0.00 0.00 0.00 92 1017.7
20260901054512 23 113 0.0 0.0 0.00 0.00 0.00 91 1017.7
20260901053007 23 113 0.0 0.0 0.00 0.00 0.00 90 1017.6
20260901051514 23 113 0.0 0.0 0.00 0.00 0.00 90 1017.6
20260901050017 23 113 0.0 0.0 0.00 0.00 0.00 89 1017.6
20260901044512 23 113 0.0 0.0 0.00 0.00 0.00 89 1017.7
20260901043015 24 113 0.0 0.0 0.00 0.00 0.00 89 1017.5
20260901041506 24 113 0.0 0.0 0.00 0.00 0.00 88 1017.6
20260901040014 24 113 0.0 0.0 0.00 0.00 0.00 88 1017.7
20260901034533 25 134 0.0 0.0 0.00 0.00 0.00 87 1017.7
20260901033023 25 134 0.0 0.0 0.00 0.00 0.00 87 1017.7
20260901031529 25 134 0.0 0.0 0.00 0.00 0.00 86 1017.7
20260901030010 25 134 0.0 0.0 0.00 0.00 0.00 85 1017.8
20260901024519 25 134 0.0 0.0 0.00 0.00 0.00 84 1017.8
20260901023018 26 134 0.0 0.0 0.00 0.00 0.00 83 1017.7
20260901021520 26 101 0.0 0.0 0.00 0.00 0.00 82 1017.7
20260901020020 27 111 0.0 0.0 0.00 0.00 0.00 80 1017.7
20260901014514 27 131 0.0 1.6 0.00 0.00 0.00 79 1017.5
20260901013020 27 114 0.0 3.2 0.00 0.00 0.00 77 1017.3
20260901011518 28 155 1.6 6.4 0.00 0.00 0.00 75 1017.1
20260901010036 28 200 0.0 8.0 0.00 0.00 0.00 74 1017.0
20260901004525 29 229 1.6 6.4 0.00 0.00 0.00 73 1016.9
20260901003017 29 97 3.2 16.1 0.00 0.00 0.00 73 1016.8
20260901001522 29 110 0.0 0.0 0.00 0.00 0.00 77 1016.4
20260901000040 30 109 0.0 0.0 0.00 0.00 0.00 73 1016.0
20260831193039 34 86 3.2 17.7 0.00 0.00 0.00 56 1017.6
20260831181541 32 105 1.6 6.4 0.00 0.00 0.00 64 1018.2
20260831180036 32 162 4.8 9.7 0.00 0.00 0.00 62 1018.2
20260831174508 32 34 1.6 6.4 0.00 0.00 0.00 62 1018.3
20260831173018 33 33 4.8 9.7 0.00 0.00 0.00 59 1018.5
20260831171523 33 145 0.0 12.9 0.00 0.00 0.00 61 1018.8
20260831170033 32 147 4.8 11.3 0.00 0.00 0.00 63 1019.1
20260831163012 32 359 4.8 12.9 0.00 0.00 0.00 65 1019.4
20260831161529 31 60 3.2 11.3 0.00 0.00 0.00 69 1019.5
20260831160023 31 53 1.6 9.7 0.00 0.00 0.00 70 1019.5
20260831154608 31 174 4.8 9.7 0.00 0.00 0.00 72 1019.6
20260831153031 30 79 4.8 9.7 0.00 0.00 0.00 71 1019.8
20260831151513 30 83 0.0 6.4 0.00 0.00 0.00 74 1019.8
20260831150019 30 186 4.8 12.9 0.00 0.00 0.00 74 1019.7
20260831144526 30 123 4.8 16.1 0.00 0.00 0.00 75 1019.6
20260831143034 29 250 1.6 9.7 0.00 0.00 0.00 77 1019.4
20260831141531 28 262 3.2 9.7 0.00 0.00 0.00 78 1019.4
20260831134520 27 65 0.0 4.8 0.00 0.00 0.00 84 1019.3
20260831133027 26 74 1.6 8.0 0.00 0.00 0.00 85 1019.3
20260831131506 26 6 0.0 4.8 0.00 0.00 0.00 86 1019.2
20260831130010 24 53 0.0 0.0 0.00 0.00 0.00 92 1019.1
20260831124519 23 328 0.0 0.0 0.00 0.00 0.00 95 1019.0
20260831123026 22 115 0.0 0.0 0.00 0.00 0.00 95 1018.8
20260831121530 22 115 0.0 0.0 0.00 0.00 0.00 95 1018.6
20260831120010 21 115 0.0 0.0 0.00 0.00 0.00 95 1018.5